FW4141 Weather Reports


time (UTC)temp
C
wind
direction
speed
KPH
gust
KPH
rain 1hr
cm
rain 24hr
cm
rain mn
cm
humidity
%
barometer
mb
20260902032020 14 0.0 0.0 0.00 0.05 0.00 86 1012.5
20260902031048 14 0.0 0.0 0.00 0.05 0.00 86 1012.5
20260902030133 14 0.0 1.6 0.00 0.05 0.00 85 1012.6
20260902025111 14 0.0 0.0 0.00 0.05 0.00 85 1012.7
20260902024105 14 0.0 1.6 0.00 0.05 0.00 84 1012.6
20260902023102 15 0.0 0.0 0.00 0.05 0.00 84 1012.6
20260902022101 15 0.0 3.2 0.00 0.05 0.00 84 1012.4
20260902021056 15 0.0 1.6 0.00 0.05 0.00 84 1012.4
20260902020052 15 0.0 0.0 0.00 0.05 0.00 83 1012.5
20260902015051 15 338 0.0 3.2 0.00 0.05 0.00 83 1012.5
20260902014045 15 30 1.6 3.2 0.00 0.05 0.00 82 1012.6
20260902013041 15 329 1.6 3.2 0.00 0.05 0.00 82 1012.6
20260902012038 15 236 1.6 4.8 0.00 0.05 0.00 82 1012.5
20260902011035 15 0.0 0.0 0.00 0.05 0.00 82 1012.5
20260902010033 16 34 1.6 6.4 0.00 0.05 0.00 81 1012.4
20260902005028 16 293 0.0 3.2 0.00 0.05 0.00 81 1012.5
20260902004043 16 0.0 0.0 0.00 0.05 0.00 81 1012.3
20260902003020 16 359 1.6 4.8 0.00 0.05 0.00 81 1012.3
20260902002017 16 225 1.6 4.8 0.00 0.05 0.00 81 1012.2
20260902001116 16 0.0 3.2 0.00 0.05 0.00 81 1012.3
20260902000110 16 287 0.0 4.8 0.00 0.05 0.00 81 1012.3
20260901235127 16 338 0.0 3.2 0.00 0.05 0.00 81 1012.4
20260901234103 16 0.0 0.0 0.00 0.05 0.00 81 1012.5
20260901233120 16 5 1.6 3.2 0.00 0.05 0.00 80 1012.2
20260901232056 16 282 1.6 3.2 0.00 0.05 0.00 79 1012.3
20260901231054 16 269 1.6 6.4 0.00 0.05 0.00 77 1012.3
20260901230048 16 5 3.2 4.8 0.00 0.05 0.00 76 1012.3
20260901225045 16 325 1.6 6.4 0.00 0.05 0.00 75 1012.4
20260901224043 16 45 1.6 3.2 0.00 0.05 0.00 75 1012.3
20260901223058 16 325 1.6 6.4 0.00 0.05 0.00 74 1012.3
20260901222036 16 58 4.8 8.0 0.00 0.05 0.00 74 1012.5
20260901221031 16 336 1.6 6.4 0.00 0.05 0.00 74 1012.3
20260901220027 16 16 3.2 6.4 0.00 0.05 0.00 74 1012.3
20260901215024 16 279 1.6 6.4 0.00 0.05 0.05 74 1012.4
20260901214022 16 332 1.6 4.8 0.00 0.05 0.05 74 1012.5
20260901213037 16 257 1.6 6.4 0.00 0.05 0.05 74 1012.3
20260901212114 16 264 1.6 4.8 0.00 0.05 0.05 73 1012.3
20260901211110 16 352 1.6 6.4 0.00 0.05 0.05 74 1012.4
20260901210107 16 351 3.2 6.4 0.00 0.05 0.05 74 1012.2
20260901205143 16 277 3.2 6.4 0.00 0.05 0.05 74 1012.2
20260901204058 16 270 0.0 3.2 0.00 0.05 0.05 73 1012.2
20260901203056 16 293 0.0 3.2 0.00 0.05 0.05 73 1012.2
20260901202051 17 45 0.0 3.2 0.00 0.05 0.05 72 1012.2
20260901201050 17 293 0.0 3.2 0.00 0.05 0.05 71 1012.1
20260901200047 17 100 1.6 3.2 0.00 0.05 0.05 71 1012.2
20260901195041 17 270 1.6 6.4 0.00 0.05 0.05 68 1012.2
20260901194103 17 352 1.6 4.8 0.00 0.05 0.05 67 1012.1
20260901193037 17 285 1.6 3.2 0.00 0.05 0.05 67 1012.2
20260901192032 18 201 1.6 4.8 0.00 0.05 0.05 67 1012.1
20260901191028 18 303 3.2 4.8 0.00 0.05 0.05 66 1012.0
20260901190024 18 308 3.2 6.4 0.00 0.05 0.05 65 1012.0
20260901185053 18 75 1.6 3.2 0.00 0.05 0.05 65 1011.9
20260901184018 18 338 3.2 6.4 0.00 0.05 0.05 66 1011.9
20260901183119 18 303 1.6 6.4 0.00 0.05 0.05 66 1011.8
20260901182113 18 0.0 0.0 0.00 0.05 0.05 64 1011.6
20260901181108 18 0.0 0.0 0.00 0.05 0.05 62 1011.5
20260901180104 19 0.0 0.0 0.00 0.05 0.05 62 1011.5
20260901175100 19 303 0.0 3.2 0.00 0.05 0.05 61 1011.3
20260901174057 20 22 1.6 3.2 0.00 0.05 0.05 60 1011.3
20260901173055 20 286 3.2 4.8 0.00 0.05 0.05 60 1011.4
20260901172050 20 23 0.0 3.2 0.00 0.05 0.05 59 1011.4
20260901171046 20 355 0.0 4.8 0.00 0.05 0.05 57 1011.3
20260901170043 21 318 3.2 6.4 0.00 0.05 0.05 56 1011.1
20260901165040 21 322 6.4 12.9 0.00 0.05 0.05 55 1011.1
20260901164037 21 310 6.4 9.7 0.00 0.05 0.05 54 1011.1
20260901163031 22 343 6.4 12.9 0.00 0.05 0.05 53 1011.0
20260901162107 22 287 3.2 8.0 0.00 0.05 0.05 51 1011.0
20260901161023 22 252 6.4 8.0 0.00 0.05 0.05 49 1010.9
20260901160039 22 26 6.4 14.5 0.00 0.05 0.05 49 1010.9
20260901155016 22 298 4.8 8.0 0.00 0.05 0.05 50 1010.8
20260901154113 22 341 3.2 8.0 0.00 0.05 0.05 49 1010.8
20260901153112 22 324 4.8 8.0 0.00 0.05 0.05 48 1010.9
20260901152106 22 311 4.8 11.3 0.00 0.05 0.05 48 1010.8
20260901151104 23 337 6.4 12.9 0.00 0.05 0.05 44 1010.9
20260901150059 25 312 4.8 11.3 0.00 0.05 0.05 42 1010.8
20260901145101 24 329 6.4 17.7 0.00 0.05 0.05 43 1010.8
20260901144053 23 309 8.0 14.5 0.00 0.05 0.05 44 1010.9
20260901143048 23 322 6.4 11.3 0.00 0.05 0.05 44 1010.8
20260901142044 23 271 4.8 12.9 0.00 0.05 0.05 43 1010.8
20260901141042 25 352 4.8 9.7 0.00 0.05 0.05 43 1010.8
20260901140039 24 296 6.4 11.3 0.00 0.05 0.05 44 1010.9
20260901135034 23 356 8.0 16.1 0.00 0.05 0.05 46 1010.9
20260901134032 23 13 6.4 12.9 0.00 0.05 0.05 46 1010.9
20260901133028 23 318 4.8 8.0 0.00 0.05 0.05 49 1010.9
20260901132045 23 316 3.2 12.9 0.00 0.05 0.05 50 1011.0
20260901131018 22 275 4.8 9.7 0.00 0.05 0.05 52 1010.9
20260901130115 22 305 6.4 12.9 0.00 0.05 0.05 48 1011.0
20260901125113 23 306 6.4 12.9 0.00 0.05 0.05 49 1011.0
20260901124109 22 354 8.0 14.5 0.00 0.05 0.05 53 1011.0
20260901123106 23 80 8.0 16.1 0.00 0.05 0.05 49 1011.0
20260901122107 24 290 8.0 12.9 0.00 0.05 0.05 50 1010.9
20260901121057 23 291 6.4 11.3 0.00 0.05 0.05 53 1010.9
20260901120054 22 287 6.4 11.3 0.00 0.05 0.05 56 1011.0
20260901115125 22 316 6.4 12.9 0.00 0.05 0.05 62 1011.0
20260901114103 21 321 8.0 17.7 0.00 0.05 0.05 62 1011.1
20260901113044 21 248 4.8 8.0 0.00 0.05 0.05 65 1011.1
20260901112054 19 328 4.8 11.3 0.00 0.05 0.05 67 1011.2
20260901111041 20 230 8.0 17.7 0.00 0.05 0.05 61 1011.2
20260901110034 21 329 8.0 12.9 0.00 0.05 0.05 60 1011.0
20260901105052 20 5 3.2 6.4 0.00 0.05 0.05 63 1011.0
20260901104052 20 4 4.8 9.7 0.00 0.05 0.05 63 1010.9
20260901103108 20 271 6.4 11.3 0.00 0.05 0.05 64 1010.9
20260901102031 20 299 6.4 12.9 0.00 0.05 0.05 65 1010.8
20260901101115 20 293 1.6 8.0 0.00 0.05 0.05 68 1010.6
20260901100114 19 9 6.4 11.3 0.00 0.05 0.05 68 1010.6
20260901095110 19 313 6.4 19.3 0.00 0.05 0.05 70 1010.6
20260901094105 20 349 6.4 9.7 0.03 0.05 0.05 73 1010.3
20260901093102 19 13 8.0 24.1 0.05 0.05 0.05 79 1010.4
20260901092059 17 277 4.8 11.3 0.05 0.05 0.05 83 1010.4
20260901091119 17 248 3.2 6.4 0.05 0.05 0.05 85 1010.4
20260901090052 16 286 1.6 6.4 0.05 0.05 0.05 84 1010.5
20260901085047 16 9 3.2 6.4 0.05 0.05 0.05 81 1010.3
20260901084047 17 317 4.8 9.7 0.03 0.03 0.03 77 1010.4
20260901083041 18 269 8.0 14.5 0.00 0.00 0.00 69 1010.1
20260901082035 18 341 6.4 9.7 0.00 0.00 0.00 69 1009.9
20260901081033 18 343 6.4 9.7 0.00 0.00 0.00 70 1009.9
20260901080049 18 326 8.0 12.9 0.00 0.00 0.00 72 1009.9
20260901075024 17 322 6.4 11.3 0.00 0.00 0.00 72 1009.7
20260901074022 17 350 6.4 11.3 0.00 0.00 0.00 76 1009.7
20260901073018 17 297 8.0 16.1 0.00 0.00 0.00 75 1009.6
20260901072115 17 359 6.4 12.9 0.00 0.00 0.00 72 1009.4
20260901071112 17 331 4.8 8.0 0.00 0.00 0.00 73 1009.3
20260901070109 17 280 6.4 11.3 0.00 0.00 0.00 78 1009.2
20260901065104 16 307 4.8 11.3 0.00 0.00 0.00 80 1009.1
20260901064059 16 342 4.8 6.4 0.00 0.00 0.00 81 1009.0
20260901063057 16 293 4.8 12.9 0.00 0.00 0.00 81 1009.0
20260901062052 16 310 4.8 9.7 0.00 0.00 0.00 82 1008.9
20260901061110 15 174 4.8 12.9 0.00 0.00 0.00 82 1008.9
20260901060046 15 55 4.8 9.7 0.00 0.00 0.00 82 1008.8
20260901055042 15 328 3.2 11.3 0.00 0.00 0.00 83 1008.7
20260901054037 15 277 4.8 8.0 0.00 0.00 0.00 83 1008.6
20260901053034 15 334 6.4 11.3 0.00 0.00 0.00 84 1008.5
20260901052030 15 353 4.8 9.7 0.00 0.00 0.00 85 1008.4
20260901051027 15 327 6.4 11.3 0.00 0.00 0.00 86 1008.4
20260901050023 15 278 6.4 9.7 0.00 0.00 0.00 87 1008.2
20260901045020 15 246 3.2 6.4 0.00 0.00 0.00 88 1008.1
20260901044016 14 319 4.8 6.4 0.00 0.00 0.00 88 1008.2
20260901043113 14 282 3.2 6.4 0.00 0.00 0.00 87 1008.0
20260901042109 14 359 3.2 6.4 0.00 0.00 0.00 87 1008.0
20260901041108 14 295 1.6 6.4 0.00 0.00 0.00 87 1007.9
20260901035100 14 302 4.8 8.0 0.00 0.00 0.00 85 1007.7
20260901034058 14 6 3.2 6.4 0.00 0.00 0.00 85 1007.7
20260901033052 14 284 1.6 8.0 0.00 0.00 0.00 84 1007.7
20260901032049 15 264 3.2 6.4 0.00 0.00 0.00 83 1007.7